Location: Famechon
(49.7599°N, 2.0615°E)
Time: 22:30:36
(UTC+00:00)

Cosmos 1741 Rocket - Pass Details

Date: 26 March 2025
Orbit: 758 x 778 km, 74.0° (Epoch: 28 April)

Event Time Altitude Azimuth Distance (km) Brightness Sun altitude
Rises 23:22:54 0° 343° (NNW) 3,234 8.2 -37.1°
Reaches altitude 10° 23:26:21 10° 7° (N) 2,307 7.2 -37.2°
Enters shadow 23:29:15 15° 41° (NE) 1,976 6.5 -37.3°
